Location: Gibsondale
(40.9931°N, 80.2478°W)
Time: 09:38:27
(UTC+00:00)

FengYun 1-2 T - Pass Details

Date: 29 October 2020
Orbit: 846 x 882 km, 98.7° (Epoch: 26 November)

Event Time Altitude Azimuth Distance (km) Brightness Sun altitude
Rises 22:55:35 0° 159° (SSE) 3,467 7.3 -7.4°
Reaches altitude 10° 22:57:59 10° 157° (SSE) 2,531 6.6 -7.8°
Maximum altitude 23:03:36 73° 73° (ENE) 918 4.2 -8.8°
Drops below altitude 10° 23:09:13 10° 350° (N) 2,533 6.7 -9.9°
Sets 23:11:37 0° 349° (N) 3,470 7.4 -10.3°
